BAW789 EGKK-ELLX

Flight info

Callsign BAW789
Flight time 0h 51m
Altitude 33000
Route ODVIK Y311 DVR UL9 KONAN UL607 REMBA
Aircraft A321/M-SDE3FGHIRWY/LB1

Departure

Time 2026-04-14 10:14
Airport London Gatwick Airport (EGKK)

Arrival

Time 2026-04-14 11:05
Airport Luxembourg-Findel International Airport (ELLX)
Time Latitude Longitude Altitude Speed Heading
2026-04-14 09:32 51.15496 -0.16903 205 ft 0 kts 348°
2026-04-14 09:57 51.15474 -0.16895 214 ft 4 kts 348°
2026-04-14 09:57 51.15450 -0.16886 211 ft 4 kts 318°
2026-04-14 09:58 51.15444 -0.16858 209 ft 2 kts 257°
2026-04-14 09:58 51.15448 -0.16826 213 ft 2 kts 257°
2026-04-14 09:58 51.15449 -0.16823 213 ft 0 kts 257°
2026-04-14 10:04 51.15449 -0.16824 205 ft 1 kts 257°
2026-04-14 10:04 51.15444 -0.16857 214 ft 5 kts 258°
2026-04-14 10:04 51.15436 -0.16920 205 ft 7 kts 258°
2026-04-14 10:05 51.15424 -0.17006 205 ft 9 kts 258°
2026-04-14 10:05 51.15410 -0.17113 205 ft 11 kts 253°
2026-04-14 10:05 51.15382 -0.17233 211 ft 12 kts 252°
2026-04-14 10:05 51.15339 -0.17356 209 ft 13 kts 219°
2026-04-14 10:06 51.15295 -0.17484 208 ft 14 kts 256°
2026-04-14 10:06 51.15274 -0.17650 205 ft 16 kts 258°
2026-04-14 10:06 51.15249 -0.17834 205 ft 18 kts 257°
2026-04-14 10:06 51.15221 -0.18034 207 ft 19 kts 257°
2026-04-14 10:07 51.15191 -0.18250 210 ft 21 kts 259°
2026-04-14 10:07 51.15166 -0.18474 211 ft 21 kts 257°
2026-04-14 10:07 51.15133 -0.18710 205 ft 23 kts 257°
2026-04-14 10:07 51.15099 -0.18960 208 ft 24 kts 257°
2026-04-14 10:08 51.15063 -0.19222 205 ft 25 kts 258°
2026-04-14 10:08 51.15027 -0.19490 214 ft 25 kts 258°
2026-04-14 10:08 51.14989 -0.19761 205 ft 24 kts 258°
2026-04-14 10:08 51.14956 -0.19999 216 ft 20 kts 257°
2026-04-14 10:09 51.14925 -0.20223 213 ft 22 kts 258°
2026-04-14 10:09 51.14893 -0.20455 209 ft 22 kts 258°
2026-04-14 10:09 51.14862 -0.20676 205 ft 21 kts 257°
2026-04-14 10:09 51.14831 -0.20900 205 ft 21 kts 258°
2026-04-14 10:10 51.14803 -0.21108 210 ft 17 kts 257°
2026-04-14 10:10 51.14769 -0.21299 214 ft 19 kts 257°
2026-04-14 10:10 51.14730 -0.21396 211 ft 0 kts 203°
2026-04-14 10:11 51.14706 -0.21399 208 ft 8 kts 176°
2026-04-14 10:11 51.14646 -0.21346 211 ft 11 kts 158°
2026-04-14 10:12 51.14571 -0.21306 208 ft 12 kts 152°
2026-04-14 10:12 51.14522 -0.21198 213 ft 13 kts 100°
2026-04-14 10:12 51.14524 -0.21142 206 ft 0 kts 80°
2026-04-14 10:13 51.14525 -0.21134 215 ft 4 kts 79°
2026-04-14 10:13 51.14591 -0.20654 209 ft 85 kts 77°
2026-04-14 10:13 51.14768 -0.19347 209 ft 153 kts 78°
2026-04-14 10:14 51.14993 -0.17568 751 ft 161 kts 85°
2026-04-14 10:14 51.15210 -0.15818 1622 ft 164 kts 85°
2026-04-14 10:14 51.15466 -0.13936 2164 ft 185 kts 83°
2026-04-14 10:14 51.15762 -0.11803 2639 ft 208 kts 83°
2026-04-14 10:15 51.16090 -0.09444 3134 ft 226 kts 83°
2026-04-14 10:15 51.16442 -0.06914 3501 ft 246 kts 82°
2026-04-14 10:15 51.16809 -0.04201 4093 ft 253 kts 86°
2026-04-14 10:15 51.16853 -0.01337 4663 ft 264 kts 96°
2026-04-14 10:16 51.16798 0.01639 5392 ft 272 kts 95°
2026-04-14 10:16 51.16741 0.04703 5851 ft 280 kts 95°
2026-04-14 10:16 51.16685 0.07827 6581 ft 284 kts 94°
2026-04-14 10:16 51.16628 0.11006 7372 ft 288 kts 94°
2026-04-14 10:17 51.16569 0.14214 8163 ft 290 kts 92°
2026-04-14 10:17 51.16523 0.17466 8910 ft 296 kts 90°
2026-04-14 10:17 51.16517 0.20786 9640 ft 302 kts 89°
2026-04-14 10:17 51.16531 0.24155 10405 ft 305 kts 89°
2026-04-14 10:18 51.16574 0.30993 11804 ft 314 kts 89°
2026-04-14 10:18 51.16589 0.34487 12542 ft 317 kts 89°
2026-04-14 10:18 51.16596 0.38008 13290 ft 320 kts 89°
2026-04-14 10:19 51.16596 0.41579 13979 ft 324 kts 90°
2026-04-14 10:19 51.16594 0.45145 14606 ft 328 kts 89°
2026-04-14 10:19 51.16592 0.48795 15255 ft 331 kts 89°
2026-04-14 10:19 51.16593 0.52575 15468 ft 351 kts 89°
2026-04-14 10:20 51.16593 0.56581 15626 ft 370 kts 89°
2026-04-14 10:20 51.16589 0.60734 16096 ft 378 kts 89°
2026-04-14 10:20 51.16584 0.64946 16695 ft 382 kts 89°
2026-04-14 10:20 51.16578 0.69200 17303 ft 386 kts 89°
2026-04-14 10:21 51.16573 0.73501 17906 ft 389 kts 89°
2026-04-14 10:21 51.16565 0.77785 18481 ft 393 kts 89°
2026-04-14 10:21 51.16554 0.82167 18977 ft 397 kts 89°
2026-04-14 10:21 51.16538 0.86588 19469 ft 401 kts 88°
2026-04-14 10:22 51.16520 0.91053 19963 ft 405 kts 88°
2026-04-14 10:22 51.16501 0.95562 20504 ft 409 kts 88°
2026-04-14 10:22 51.16482 1.00107 21047 ft 411 kts 88°
2026-04-14 10:22 51.16461 1.04677 21542 ft 413 kts 88°
2026-04-14 10:23 51.16435 1.09281 22015 ft 417 kts 88°
2026-04-14 10:23 51.16407 1.13910 22493 ft 420 kts 87°
2026-04-14 10:23 51.16380 1.18595 22954 ft 423 kts 87°
2026-04-14 10:23 51.16354 1.23302 23411 ft 426 kts 87°
2026-04-14 10:24 51.16326 1.27991 23833 ft 430 kts 87°
2026-04-14 10:24 51.16292 1.32770 24209 ft 433 kts 86°
2026-04-14 10:24 51.16236 1.37588 24572 ft 437 kts 88°
2026-04-14 10:24 51.16085 1.42450 24934 ft 441 kts 90°
2026-04-14 10:25 51.15854 1.47326 25366 ft 442 kts 91°
2026-04-14 10:25 51.15578 1.52236 25756 ft 445 kts 91°
2026-04-14 10:25 51.15289 1.57156 26114 ft 448 kts 91°
2026-04-14 10:25 51.15009 1.62107 26467 ft 451 kts 91°
2026-04-14 10:26 51.14742 1.67112 26818 ft 454 kts 90°
2026-04-14 10:26 51.14489 1.72146 27166 ft 457 kts 90°
2026-04-14 10:26 51.14242 1.77212 27504 ft 460 kts 90°
2026-04-14 10:26 51.13995 1.82327 27838 ft 463 kts 90°
2026-04-14 10:27 51.13747 1.87384 28165 ft 466 kts 90°
2026-04-14 10:27 51.13484 1.92543 28555 ft 468 kts 90°
2026-04-14 10:27 51.13213 1.97710 28983 ft 469 kts 90°
2026-04-14 10:27 51.12937 2.02902 29347 ft 471 kts 89°
2026-04-14 10:28 51.12658 2.08127 29684 ft 474 kts 89°
2026-04-14 10:28 51.12376 2.13370 30013 ft 477 kts 89°
2026-04-14 10:28 51.12089 2.18640 30322 ft 480 kts 89°
2026-04-14 10:28 51.11799 2.23952 30603 ft 482 kts 89°
2026-04-14 10:29 51.11507 2.29279 30889 ft 484 kts 89°
2026-04-14 10:29 51.11215 2.34637 31165 ft 486 kts 89°
2026-04-14 10:29 51.10924 2.39929 31462 ft 487 kts 90°
2026-04-14 10:29 51.10622 2.45307 31758 ft 487 kts 90°
2026-04-14 10:30 51.10317 2.50683 32022 ft 488 kts 90°
2026-04-14 10:30 51.10006 2.56054 32365 ft 487 kts 90°
2026-04-14 10:30 51.09690 2.61431 32710 ft 487 kts 90°
2026-04-14 10:30 51.09156 2.66768 33034 ft 491 kts 99°
2026-04-14 10:31 51.08246 2.72027 33184 ft 491 kts 102°
2026-04-14 10:31 51.07627 2.75441 33202 ft 480 kts 102°
2026-04-14 10:31 51.05793 2.85492 33233 ft 469 kts 102°
2026-04-14 10:32 51.03984 2.95416 33214 ft 465 kts 102°
2026-04-14 10:32 51.02179 3.05294 33210 ft 465 kts 102°
2026-04-14 10:33 51.00361 3.15166 33205 ft 465 kts 102°
2026-04-14 10:33 50.98531 3.25009 33202 ft 465 kts 102°
2026-04-14 10:34 50.95779 3.39770 33219 ft 465 kts 102°
2026-04-14 10:35 50.93931 3.49599 33217 ft 464 kts 102°
2026-04-14 10:35 50.92079 3.59383 33222 ft 464 kts 103°
2026-04-14 10:36 50.90212 3.69168 33216 ft 464 kts 103°
2026-04-14 10:36 50.88337 3.78942 33249 ft 463 kts 103°
2026-04-14 10:37 50.86452 3.88678 33238 ft 462 kts 103°
2026-04-14 10:37 50.84560 3.98398 33235 ft 461 kts 103°
2026-04-14 10:38 50.82654 4.08073 33235 ft 461 kts 104°
2026-04-14 10:38 50.80761 4.17695 33234 ft 460 kts 104°
2026-04-14 10:39 50.78850 4.27349 33150 ft 457 kts 103°
2026-04-14 10:39 50.77900 4.32127 32700 ft 452 kts 103°
2026-04-14 10:39 50.76966 4.36826 32226 ft 447 kts 103°
2026-04-14 10:39 50.76034 4.41499 31746 ft 443 kts 103°
2026-04-14 10:40 50.75107 4.46133 31272 ft 440 kts 103°
2026-04-14 10:40 50.74186 4.50731 30807 ft 436 kts 103°
2026-04-14 10:40 50.73282 4.55223 30343 ft 432 kts 103°
2026-04-14 10:40 50.72371 4.59731 29824 ft 429 kts 104°
2026-04-14 10:41 50.71481 4.64201 29312 ft 425 kts 103°
2026-04-14 10:41 50.70620 4.68640 28822 ft 420 kts 103°
2026-04-14 10:41 50.69777 4.73028 28367 ft 415 kts 103°
2026-04-14 10:41 50.68944 4.77364 27894 ft 411 kts 103°
2026-04-14 10:42 50.68115 4.81659 27417 ft 407 kts 104°
2026-04-14 10:42 50.67282 4.85907 26950 ft 405 kts 106°
2026-04-14 10:42 50.66151 4.89963 26481 ft 404 kts 117°
2026-04-14 10:42 50.64602 4.93640 26017 ft 402 kts 128°
2026-04-14 10:43 50.62704 4.96862 25567 ft 400 kts 135°
2026-04-14 10:43 50.60742 4.99886 25122 ft 397 kts 135°
2026-04-14 10:43 50.58779 5.02926 24695 ft 393 kts 135°
2026-04-14 10:43 50.56839 5.05935 24282 ft 390 kts 135°
2026-04-14 10:44 50.54915 5.08919 23835 ft 386 kts 135°
2026-04-14 10:44 50.53006 5.11868 23345 ft 383 kts 136°
2026-04-14 10:44 50.51111 5.14789 22915 ft 377 kts 136°
2026-04-14 10:44 50.49271 5.17630 22434 ft 373 kts 136°
2026-04-14 10:45 50.47418 5.20490 21947 ft 370 kts 136°
2026-04-14 10:45 50.45586 5.23308 21467 ft 367 kts 136°
2026-04-14 10:45 50.43762 5.26105 20999 ft 364 kts 136°
2026-04-14 10:45 50.41978 5.28834 20543 ft 361 kts 136°
2026-04-14 10:46 50.40187 5.31576 20088 ft 358 kts 136°
2026-04-14 10:46 50.38408 5.34297 19634 ft 355 kts 136°
2026-04-14 10:46 50.36641 5.36997 19188 ft 352 kts 136°
2026-04-14 10:46 50.34895 5.39662 18752 ft 349 kts 136°
2026-04-14 10:47 50.33182 5.42280 18299 ft 347 kts 136°
2026-04-14 10:47 50.31462 5.44905 17815 ft 344 kts 136°
2026-04-14 10:47 50.29753 5.47507 17313 ft 341 kts 136°
2026-04-14 10:47 50.28056 5.50083 16838 ft 338 kts 136°
2026-04-14 10:48 50.26371 5.52635 16381 ft 336 kts 135°
2026-04-14 10:48 50.24702 5.55165 15914 ft 333 kts 135°
2026-04-14 10:48 50.23044 5.57677 15450 ft 331 kts 135°
2026-04-14 10:48 50.21397 5.60169 15020 ft 328 kts 135°
2026-04-14 10:49 50.19765 5.62642 14587 ft 326 kts 135°
2026-04-14 10:49 50.18145 5.65093 14148 ft 323 kts 135°
2026-04-14 10:49 50.16534 5.67528 13694 ft 321 kts 135°
2026-04-14 10:49 50.14951 5.69910 13238 ft 318 kts 135°
2026-04-14 10:50 50.13362 5.72294 12792 ft 316 kts 135°
2026-04-14 10:50 50.11793 5.74646 12493 ft 306 kts 136°
2026-04-14 10:50 50.10302 5.76882 12289 ft 290 kts 135°
2026-04-14 10:50 50.08869 5.79034 11849 ft 283 kts 136°
2026-04-14 10:51 50.07460 5.81151 11361 ft 280 kts 136°
2026-04-14 10:51 50.06062 5.83250 10833 ft 279 kts 136°
2026-04-14 10:51 50.04664 5.85350 10276 ft 279 kts 136°
2026-04-14 10:51 50.03261 5.87455 9679 ft 279 kts 136°
2026-04-14 10:52 50.01862 5.89549 9041 ft 277 kts 136°
2026-04-14 10:52 50.00493 5.91594 8442 ft 269 kts 136°
2026-04-14 10:52 49.99165 5.93580 7848 ft 262 kts 136°
2026-04-14 10:52 49.97876 5.95501 7279 ft 260 kts 136°
2026-04-14 10:53 49.96561 5.97460 6960 ft 258 kts 136°
2026-04-14 10:53 49.95285 5.99359 6748 ft 252 kts 136°
2026-04-14 10:53 49.94020 6.01242 6442 ft 250 kts 135°
2026-04-14 10:53 49.92772 6.03097 6120 ft 247 kts 136°
2026-04-14 10:54 49.91556 6.04903 5827 ft 237 kts 136°
2026-04-14 10:54 49.90373 6.06660 5514 ft 234 kts 135°
2026-04-14 10:54 49.89198 6.08404 5209 ft 233 kts 135°
2026-04-14 10:54 49.87965 6.10014 4898 ft 231 kts 146°
2026-04-14 10:55 49.86526 6.11107 4583 ft 231 kts 161°
2026-04-14 10:55 49.84980 6.11598 4414 ft 230 kts 175°
2026-04-14 10:55 49.83413 6.11503 4281 ft 221 kts 189°
2026-04-14 10:55 49.81950 6.10881 4180 ft 216 kts 198°
2026-04-14 10:56 49.80532 6.10168 4047 ft 214 kts 198°
2026-04-14 10:56 49.79108 6.09457 3918 ft 214 kts 198°
2026-04-14 10:56 49.77685 6.08749 3800 ft 215 kts 198°
2026-04-14 10:56 49.76266 6.08042 3657 ft 213 kts 198°
2026-04-14 10:57 49.74858 6.07343 3534 ft 209 kts 198°
2026-04-14 10:57 49.73496 6.06668 3402 ft 204 kts 197°
2026-04-14 10:57 49.72151 6.06000 3267 ft 203 kts 197°
2026-04-14 10:57 49.70807 6.05331 3167 ft 202 kts 198°
2026-04-14 10:58 49.69474 6.04668 3071 ft 201 kts 198°
2026-04-14 10:58 49.68138 6.04005 3062 ft 201 kts 197°
2026-04-14 10:58 49.66803 6.03342 3063 ft 201 kts 198°
2026-04-14 10:58 49.65473 6.02683 3078 ft 198 kts 197°
2026-04-14 10:59 49.64158 6.02030 3069 ft 197 kts 197°
2026-04-14 10:59 49.62920 6.01164 3061 ft 197 kts 214°
2026-04-14 10:59 49.61888 5.99793 3062 ft 196 kts 229°
2026-04-14 10:59 49.61088 5.98262 3056 ft 174 kts 232°
2026-04-14 11:00 49.60178 5.97176 3054 ft 164 kts 195°
2026-04-14 11:00 49.59098 5.97161 3055 ft 151 kts 168°
2026-04-14 11:00 49.58088 5.97520 3058 ft 148 kts 164°
2026-04-14 11:00 49.57104 5.97946 3062 ft 146 kts 160°
2026-04-14 11:01 49.56256 5.98768 3066 ft 144 kts 133°
2026-04-14 11:01 49.55718 6.00052 3067 ft 143 kts 108°
2026-04-14 11:01 49.55579 6.01532 3063 ft 141 kts 85°
2026-04-14 11:01 49.55849 6.02961 3063 ft 139 kts 60°
2026-04-14 11:02 49.56332 6.04247 3063 ft 139 kts 59°
2026-04-14 11:02 49.56823 6.05557 3047 ft 140 kts 59°
2026-04-14 11:02 49.57304 6.06842 2935 ft 140 kts 59°
2026-04-14 11:02 49.57796 6.08155 2780 ft 139 kts 59°
2026-04-14 11:03 49.58269 6.09422 2602 ft 137 kts 58°
2026-04-14 11:03 49.58747 6.10700 2413 ft 138 kts 59°
2026-04-14 11:03 49.59228 6.11987 2231 ft 139 kts 59°
2026-04-14 11:03 49.59707 6.13269 2033 ft 137 kts 60°
2026-04-14 11:04 49.60181 6.14539 1838 ft 136 kts 60°
2026-04-14 11:04 49.60650 6.15796 1654 ft 135 kts 59°
2026-04-14 11:04 49.61116 6.17046 1463 ft 134 kts 60°
2026-04-14 11:04 49.61579 6.18298 1297 ft 134 kts 60°
2026-04-14 11:05 49.62035 6.19541 1207 ft 128 kts 60°
2026-04-14 11:05 49.62374 6.20429 1211 ft 54 kts 60°
2026-04-14 11:05 49.62437 6.20581 1212 ft 1 kts 49°
2026-04-14 11:05 49.62476 6.20585 1212 ft 14 kts 11°
2026-04-14 11:06 49.62605 6.20653 1201 ft 23 kts 22°
2026-04-14 11:06 49.62629 6.20669 1200 ft 0 kts 22°
2026-04-14 11:10 49.62674 6.20696 1198 ft 9 kts 21°
2026-04-14 11:10 49.62746 6.20740 1197 ft 13 kts 21°
2026-04-14 11:10 49.62821 6.20818 1196 ft 13 kts 72°
2026-04-14 11:10 49.62860 6.20955 1197 ft 15 kts 62°
2026-04-14 11:11 49.62913 6.21107 1197 ft 17 kts 63°
2026-04-14 11:11 49.62967 6.21283 1197 ft 19 kts 65°
2026-04-14 11:11 49.63024 6.21477 1197 ft 20 kts 65°
2026-04-14 11:11 49.63088 6.21682 1197 ft 22 kts 64°
2026-04-14 11:12 49.63131 6.21765 1197 ft 7 kts
2026-04-14 11:12 49.63165 6.21751 1197 ft 9 kts 331°
2026-04-14 11:12 49.63228 6.21694 1196 ft 12 kts 329°
2026-04-14 11:12 49.63288 6.21714 1196 ft 9 kts 21°
2026-04-14 11:13 49.63337 6.21699 1196 ft 0 kts 330°
2026-04-14 11:13 49.63344 6.21693 1195 ft 0 kts 331°